TimeEST,TemperatureF,Dew PointF,Humidity,Sea Level PressureIn,VisibilityMPH,Wind Direction,Wind SpeedMPH,Gust SpeedMPH,PrecipitationIn,Events,Conditions,WindDirDegrees,DateUTC
12:53 AM,39.9,36.0,86,29.54,10.0,SE,9.2,-,0.00,,Overcast,130,2013-02-27 05:53:00
1:04 AM,39.2,35.6,87,29.52,10.0,SE,8.1,-,N/A,,Overcast,130,2013-02-27 06:04:00
1:28 AM,41.0,35.6,81,29.52,9.0,SE,9.2,-,0.00,Rain,Light Rain,140,2013-02-27 06:28:00
1:53 AM,39.9,37.0,89,29.54,8.0,SE,6.9,-,0.00,Rain,Light Rain,140,2013-02-27 06:53:00
2:29 AM,39.2,37.4,93,29.52,10.0,SSE,5.8,-,0.01,Rain,Light Rain,150,2013-02-27 07:29:00
2:51 AM,39.2,37.4,93,29.52,10.0,SE,4.6,-,0.01,Rain,Light Rain,140,2013-02-27 07:51:00
3:27 AM,42.8,39.2,87,29.51,9.0,SSW,5.8,-,0.01,Rain,Light Rain,210,2013-02-27 08:27:00
3:35 AM,42.8,39.2,87,29.51,9.0,Calm,Calm,-,0.01,Rain,Light Rain,0,2013-02-27 08:35:00
3:53 AM,42.1,37.9,85,29.54,10.0,SW,12.7,21.9,0.02,Rain,Light Rain,220,2013-02-27 08:53:00
4:06 AM,41.0,37.4,87,29.53,10.0,SW,12.7,23.0,0.00,Rain,Light Rain,230,2013-02-27 09:06:00
4:51 AM,39.2,35.6,87,29.55,6.0,WSW,6.9,-,0.04,Rain,Light Rain,240,2013-02-27 09:51:00
4:53 AM,39.0,35.1,86,29.57,6.0,SW,5.8,-,0.05,Rain,Light Rain,230,2013-02-27 09:53:00
5:53 AM,39.0,35.1,86,29.59,7.0,SW,3.5,-,0.07,Rain,Light Rain,230,2013-02-27 10:53:00
6:53 AM,39.0,35.1,86,29.60,9.0,SW,5.8,-,0.04,Rain,Light Rain,220,2013-02-27 11:53:00
7:53 AM,39.9,36.0,86,29.62,10.0,SSW,6.9,-,0.00,,Overcast,210,2013-02-27 12:53:00
8:53 AM,39.9,36.0,86,29.65,10.0,Variable,5.8,-,N/A,,Overcast,0,2013-02-27 13:53:00
9:53 AM,39.9,35.1,83,29.66,10.0,SSW,8.1,-,N/A,,Overcast,210,2013-02-27 14:53:00
10:26 AM,41.0,35.6,81,29.64,10.0,SSW,9.2,-,N/A,,Overcast,210,2013-02-27 15:26:00
10:53 AM,39.9,35.1,83,29.66,10.0,SSW,9.2,-,N/A,,Overcast,210,2013-02-27 15:53:00
11:53 AM,39.9,35.1,83,29.65,10.0,SW,8.1,-,N/A,,Overcast,220,2013-02-27 16:53:00
12:53 PM,41.0,35.1,79,29.65,10.0,SSW,9.2,16.1,0.00,,Overcast,210,2013-02-27 17:53:00
1:53 PM,42.1,34.0,73,29.64,10.0,SW,5.8,-,N/A,,Overcast,230,2013-02-27 18:53:00
2:29 PM,42.8,33.8,70,29.62,10.0,WSW,6.9,19.6,N/A,,Overcast,240,2013-02-27 19:29:00
2:53 PM,42.1,34.0,73,29.64,10.0,SSW,5.8,-,0.00,Rain,Light Rain,200,2013-02-27 19:53:00
3:53 PM,39.0,34.0,82,29.65,6.0,WSW,5.8,-,0.04,Rain,Light Rain,240,2013-02-27 20:53:00
4:01 PM,39.2,35.6,87,29.64,5.0,WSW,4.6,-,0.00,Rain,Light Rain,240,2013-02-27 21:01:00
4:53 PM,37.9,34.0,86,29.67,10.0,Variable,6.9,-,0.04,Rain,Light Rain,0,2013-02-27 21:53:00
5:14 PM,37.4,33.8,87,29.65,8.0,WSW,5.8,-,0.00,Rain,Light Rain,240,2013-02-27 22:14:00
5:26 PM,37.4,33.8,87,29.66,5.0,SW,6.9,-,0.01,Rain,Light Rain,230,2013-02-27 22:26:00
5:41 PM,37.4,32.0,81,29.66,10.0,WSW,8.1,-,0.02,Rain,Light Rain,240,2013-02-27 22:41:00
5:48 PM,37.4,33.8,87,29.66,10.0,WSW,6.9,-,0.02,Rain,Light Rain,240,2013-02-27 22:48:00
5:53 PM,37.0,33.1,86,29.68,10.0,West,6.9,-,0.02,Rain,Light Rain,260,2013-02-27 22:53:00
6:24 PM,35.6,32.0,87,29.68,5.0,WSW,5.8,-,0.02,Rain,Rain,240,2013-02-27 23:24:00
6:43 PM,35.6,32.0,87,29.68,8.0,WSW,6.9,-,0.03,,Overcast,250,2013-02-27 23:43:00
6:53 PM,36.0,32.0,86,29.70,10.0,WSW,6.9,-,0.03,,Overcast,250,2013-02-27 23:53:00
7:49 PM,35.6,30.2,81,29.68,10.0,SW,5.8,-,N/A,,Overcast,230,2013-02-28 00:49:00
7:53 PM,36.0,30.9,82,29.70,10.0,Variable,5.8,-,N/A,,Overcast,0,2013-02-28 00:53:00
8:26 PM,35.6,30.2,81,29.67,10.0,SW,6.9,-,N/A,,Overcast,230,2013-02-28 01:26:00
8:50 PM,35.6,30.2,81,29.68,10.0,WSW,8.1,-,N/A,,Overcast,240,2013-02-28 01:50:00
8:53 PM,36.0,30.0,79,29.70,10.0,SW,6.9,-,N/A,,Overcast,220,2013-02-28 01:53:00
9:53 PM,36.0,28.9,76,29.69,10.0,SW,10.4,17.3,N/A,,Overcast,230,2013-02-28 02:53:00
10:53 PM,35.1,28.0,76,29.68,10.0,WSW,9.2,-,N/A,,Overcast,240,2013-02-28 03:53:00
11:53 PM,35.1,28.0,76,29.67,10.0,SW,9.2,19.6,N/A,,Overcast,220,2013-02-28 04:53:00